Вернуться в каталог

ATS 6

АктивенНаукаGEO
NORAD 7318·PAYLOAD·🇺🇸 United States

Запущен May 30, 1974 с Cape Canaveral Space Force Station

Loading…

TLE

СвежийSource: Space-Track

Эпоха: Sep 14, 2026, 13:12 UTC

1 07318U 74039A   26257.55061745 -.00000164  00000-0  00000-0 0  9999
2 07318   1.7425 243.3097 0033217 349.9525 194.7696  1.01979890122912

Отслеживайте ATS 6 в реальном времени с AllMySat

Download on the App Store